Theta_e
279 279 279 279 280 281 280 280 280 282 283 285 285 283 279 280 282 281 279 280 279 278 278 277 276 278 277 277 278 279 280 281 280 276 275 274 273 272 272 271 270 270 271
279 279 278 278 279 279 279 278 279 280 281 282 282 281 284 278 280 278 277 277 277 276 276 276 276 277 277 276 276 275 275 276 276 276 274 273 272 270 270 270 271 270 271
279 278 278 278 277 277 278 278 278 279 279 280 278 278 277 277 277 278 277 276 276 275 275 275 275 275 274 274 274 274 274 273 273 273 272 271 270 270 270 269 269 269 269
278 278 278 278 278 277 277 277 276 276 277 277 275 276 276 277 276 276 276 276 275 275 275 275 275 274 273 273 273 272 273 272 272 271 271 270 269 269 268 268 268 268 268
278 278 277 277 277 277 277 277 276 276 276 275 275 275 275 276 277 277 276 275 275 274 274 274 274 275 274 274 272 271 271 271 271 271 270 270 269 269 268 267 267 268 268
277 277 277 277 277 277 276 276 276 276 276 275 275 275 275 275 275 273 274 274 274 274 274 274 274 273 273 273 272 271 271 271 271 270 270 269 269 268 267 267 268 268 269
276 276 276 276 276 276 276 276 276 276 275 275 275 275 275 275 274 274 275 275 275 274 273 273 273 273 273 273 272 271 270 270 270 270 269 268 268 267 267 268 268 268 267
276 276 276 276 276 277 276 276 276 276 276 275 275 275 275 275 274 274 274 274 273 272 273 273 273 273 274 273 272 271 269 269 269 269 269 268 268 268 269 268 267 266 265
275 276 276 276 276 277 277 276 276 276 276 276 276 276 275 275 274 274 274 273 273 272 271 272 273 273 273 274 272 270 268 269 269 270 269 268 267 267 267 266 265 264 264
276 276 276 277 277 276 276 276 276 276 276 276 276 276 276 276 275 274 274 273 273 272 272 271 270 272 273 273 271 270 268 269 269 267 266 266 267 267 266 265 263 263 263
276 276 276 276 277 276 276 276 276 276 275 275 275 275 276 276 276 276 274 273 273 272 271 271 270 271 272 272 271 268 269 271 268 265 266 266 266 266 265 265 264 263 263
275 275 275 275 275 275 275 275 275 275 275 274 274 274 274 274 274 275 275 274 273 272 271 271 271 271 271 270 269 269 269 268 266 266 265 265 265 265 265 265 265 264 264
275 275 275 275 275 275 276 276 275 274 274 273 273 273 273 273 273 274 274 274 273 273 272 271 271 271 271 271 270 268 267 267 265 264 263 262 262 263 264 264 266 263 263
276 276 275 275 276 276 276 275 274 273 273 272 273 273 273 273 274 274 274 274 273 273 272 271 270 270 270 269 269 268 267 265 263 261 261 262 263 263 264 263 261 261 261
275 276 276 276 275 275 274 274 274 273 273 273 273 273 273 273 273 274 274 274 274 272 271 270 268 268 269 268 268 267 266 266 264 263 262 261 261 260 262 261 260 261 261
276 276 275 275 275 274 274 273 273 273 273 273 273 272 273 272 272 273 274 273 273 270 269 267 267 266 266 266 265 266 266 266 265 262 261 260 259 259 259 260 260 260 261
276 276 275 275 274 274 273 273 273 274 274 273 273 273 273 273 272 272 273 272 270 268 267 267 266 266 266 265 265 264 265 265 264 262 260 259 258 259 258 258 260 260 261
275 274 274 274 274 274 273 273 272 272 272 272 272 272 272 271 272 271 272 271 269 268 268 268 267 267 266 265 265 264 264 264 263 261 260 259 258 258 258 259 260 261 262
274 274 274 273 273 273 273 272 271 271 271 272 271 271 271 270 271 271 271 270 269 270 270 269 269 268 267 266 265 264 264 263 262 260 260 259 259 258 258 259 260 261 262
274 274 274 273 273 272 272 271 270 270 270 271 271 272 271 270 269 270 269 270 269 269 269 269 269 268 267 266 265 264 263 262 261 260 259 259 259 258 258 260 261 262 263
275 274 273 272 271 271 271 271 271 270 271 271 272 272 271 270 270 269 270 270 269 269 269 269 269 269 267 266 265 264 263 262 262 261 260 260 259 258 260 260 262 262 263
274 273 273 272 272 271 271 271 271 271 270 271 272 272 271 269 269 270 270 270 270 270 269 268 269 269 268 266 265 264 264 263 263 262 260 259 259 259 260 260 261 262 263
274 273 272 272 272 272 271 271 271 270 270 270 271 271 271 271 270 270 270 270 270 272 272 269 270 270 269 267 266 265 264 264 264 262 261 260 259 258 259 260 261 262 263
274 273 272 271 271 271 270 269 270 270 270 269 269 270 270 271 271 271 271 270 270 272 273 271 271 270 269 267 266 266 266 265 264 264 262 259 258 259 260 261 261 264 267
274 272 271 271 270 269 269 269 269 269 269 269 269 269 270 270 270 271 271 271 270 271 273 272 271 271 269 267 267 267 266 266 265 265 263 263 262 262 261 265 267 268 270
273 271 271 270 270 270 269 269 269 269 269 269 269 269 269 269 270 270 270 270 270 271 273 272 271 270 268 267 268 267 267 266 266 263 264 264 266 267 267 268 270 271 272
Wind_Speed
20 19 22 24 28 32 33 32 31 34 36 39 42 39 29 41 46 46 43 44 46 43 38 37 36 34 33 30 28 26 23 17 10 4 4 1 3 12 15 18 15 15 18
21 23 25 28 32 37 37 34 34 43 43 46 42 37 48 34 44 44 41 38 42 41 36 36 36 33 32 28 27 26 25 21 9 8 2 5 3 10 16 19 20 20 24
24 25 28 29 32 35 43 37 41 45 46 47 42 40 38 40 44 44 43 41 40 36 35 36 33 31 29 26 25 23 20 18 15 7 3 5 5 12 22 19 23 24 23
25 28 31 30 31 34 36 42 40 41 46 44 38 42 43 42 39 40 39 40 38 34 33 33 32 29 26 24 22 20 18 15 12 10 5 5 6 12 17 20 25 24 24
21 25 27 30 33 33 34 38 34 35 43 40 36 41 39 38 36 37 36 37 35 33 30 30 27 25 24 21 18 15 13 11 8 7 6 7 9 16 16 17 23 25 25
24 25 25 30 31 31 31 36 35 34 36 30 34 36 31 26 22 26 32 33 31 30 28 24 22 22 19 19 16 14 13 11 8 4 4 9 14 14 16 19 23 23 12
23 19 23 27 29 30 31 29 30 30 30 29 31 33 30 24 22 26 28 28 28 26 21 17 16 18 18 14 16 15 12 8 2 4 6 9 14 16 19 22 22 23 25
18 20 23 25 29 31 30 29 30 30 27 26 28 27 26 22 21 22 23 23 23 21 18 16 16 15 13 14 14 12 12 9 5 6 10 14 16 20 21 22 25 27 27
19 22 22 24 29 29 29 26 25 26 26 26 25 24 22 18 15 16 17 17 17 16 13 11 12 13 8 8 12 12 12 12 11 10 14 18 20 20 20 20 19 19 19
18 19 20 22 25 25 23 23 23 24 25 24 23 22 20 17 13 13 13 13 14 11 10 10 8 9 8 8 12 12 13 15 12 17 24 25 23 21 19 17 17 16 17
17 17 17 18 19 18 18 18 18 19 18 18 18 16 15 15 13 12 11 11 11 9 6 7 9 7 9 10 11 13 13 17 20 23 25 27 27 26 23 23 22 18 21
15 15 15 14 15 14 13 14 13 12 13 13 12 11 10 10 9 8 6 6 3 6 7 8 13 13 13 13 14 14 16 18 24 26 27 27 26 27 28 28 30 29 31
14 13 12 11 11 10 9 9 8 7 7 8 7 7 6 6 7 6 7 5 9 10 14 11 15 17 17 17 17 17 19 21 21 23 23 24 24 29 31 33 36 34 37
11 11 10 9 9 7 6 5 6 7 7 6 5 4 3 3 5 8 10 12 12 11 12 14 16 17 17 18 20 19 19 19 19 20 23 27 29 30 35 33 31 31 29
12 10 9 8 8 8 7 6 6 5 4 4 3 2 2 3 4 8 8 10 12 13 13 15 16 17 20 22 23 24 23 22 22 24 26 30 32 30 34 30 26 27 27
13 13 12 11 11 11 10 9 8 6 8 7 6 6 5 8 9 9 9 9 9 8 13 15 18 19 21 23 25 28 28 27 27 27 27 29 28 28 29 31 27 26 29
18 18 17 17 17 16 15 13 12 11 11 10 10 11 11 14 12 12 11 11 13 14 16 17 18 21 24 25 26 27 30 31 29 29 29 31 28 30 28 28 29 29 30
22 21 20 20 20 19 20 19 18 18 18 17 16 17 17 15 16 14 12 15 16 16 18 20 23 24 26 27 29 31 33 33 32 31 31 32 31 28 28 28 28 30 31
26 26 25 23 24 24 23 24 23 22 22 21 19 18 17 17 16 17 14 17 20 22 22 25 25 27 28 29 30 33 34 35 34 33 34 33 33 27 28 30 32 34 35
30 30 29 28 27 28 29 29 28 27 25 25 24 24 20 20 20 19 18 20 23 25 25 27 28 29 30 31 32 33 35 35 35 35 35 34 33 28 29 32 32 33 33
36 36 35 33 33 33 33 33 31 30 30 30 31 26 23 23 24 25 24 24 26 27 28 28 29 31 31 32 33 35 36 37 36 38 37 37 32 30 31 33 35 35 35
39 39 38 39 38 36 36 35 34 34 34 34 34 31 27 26 29 30 29 28 27 28 29 28 31 32 32 33 34 35 37 38 39 38 39 37 34 33 33 34 34 35 35
41 41 40 40 40 39 38 38 39 39 39 39 37 36 34 33 33 33 32 31 28 29 31 30 31 33 33 35 35 36 36 38 39 39 41 41 39 36 34 35 37 37 36
41 42 42 41 40 41 40 39 39 40 39 39 39 39 39 38 37 36 34 32 30 29 33 32 32 33 34 36 37 37 37 38 39 41 40 40 40 39 38 39 38 40 41
43 42 41 39 37 36 36 37 36 35 35 36 37 38 39 39 39 38 35 31 30 30 33 33 32 33 35 37 38 37 36 38 39 40 38 41 46 46 42 41 43 43 42
41 39 38 34 34 33 33 31 32 32 33 33 34 36 36 36 36 35 32 30 29 29 33 32 32 33 36 38 38 36 38 40 40 37 37 39 40 41 42 42 44 43 44
Wind_Direction
53 60 68 71 85 86 83 84 85 93 94 95 91 91 79 85 94 95 93 97 98 96 94 94 93 92 88 85 83 81 82 89 108 114 131 359 344 351 348 346 346 339 333
62 65 68 75 82 84 84 84 88 89 90 95 97 89 87 82 96 94 92 93 95 95 95 92 87 84 82 80 78 75 73 73 98 99 98 349 333 341 341 341 340 336 333
69 71 71 72 78 82 87 86 87 93 93 94 95 97 95 95 94 98 99 95 92 92 92 89 87 85 80 76 72 71 68 69 71 95 76 359 338 337 339 339 335 333 329
76 78 76 75 80 82 87 89 86 92 96 96 94 96 97 98 98 100 99 97 95 90 85 82 78 76 75 70 67 63 59 59 54 55 33 3 330 330 336 333 328 329 320
71 76 78 82 82 83 84 91 88 85 90 91 89 91 93 93 96 99 99 97 96 93 87 84 79 76 73 66 59 57 56 54 50 43 18 344 335 331 332 321 309 314 317
72 76 85 86 85 82 82 86 89 88 92 92 92 91 88 90 100 101 101 98 96 89 80 77 77 74 73 65 61 56 47 33 28 6 359 326 301 304 311 315 314 319 324
84 82 87 93 93 94 94 92 92 93 96 91 93 94 94 91 86 88 86 83 81 80 79 74 65 58 51 45 38 35 34 27 310 292 289 290 298 314 315 314 310 307 298
84 88 96 98 100 104 103 101 103 102 96 93 93 90 85 77 78 82 82 81 79 78 75 71 66 62 39 14 9 4 1 348 304 275 284 303 309 309 308 308 305 298 300
100 106 109 110 112 108 102 103 107 103 99 93 93 89 86 81 75 78 80 78 77 72 66 63 56 51 23 2 337 338 327 338 328 269 295 304 308 309 308 307 308 318 317
111 113 114 114 112 111 116 115 110 107 104 101 97 93 90 84 77 78 79 76 67 55 44 36 27 17 353 342 319 322 331 333 318 317 316 322 325 321 321 320 316 302 306
120 119 117 114 112 116 116 111 110 108 107 104 100 100 96 90 75 62 55 59 55 40 23 9 8 350 332 331 327 325 324 321 319 320 325 328 331 330 328 325 317 298 283
131 126 123 124 122 121 120 116 113 120 118 113 114 111 105 99 87 82 73 52 19 11 2 358 355 340 336 331 327 326 326 317 327 328 327 324 323 325 324 320 316 309 301
147 141 137 134 131 132 130 132 138 138 131 128 125 119 106 89 75 63 43 19 0 344 349 345 333 333 332 332 331 327 322 324 320 316 314 313 316 318 319 319 323 319 314
162 161 160 164 159 160 164 181 191 189 187 184 174 160 135 103 58 29 10 357 348 330 324 323 327 325 326 325 324 324 322 320 315 308 309 313 318 319 321 322 309 308 301
180 185 189 193 200 203 207 214 214 219 232 249 245 241 281 311 348 345 330 331 333 324 312 310 314 320 324 329 329 328 327 325 320 320 315 316 315 314 314 312 296 295 286
196 204 211 214 214 214 213 214 223 251 254 251 260 256 274 297 286 298 301 299 298 284 296 303 310 316 317 323 326 327 326 324 322 316 312 310 303 302 301 303 295 288 287
216 216 216 217 218 220 222 230 237 227 222 239 248 257 268 275 278 282 287 288 288 289 297 304 304 312 315 318 320 320 316 317 315 310 310 308 300 300 295 292 292 290 288
222 224 226 229 229 231 233 240 242 246 252 256 258 263 260 264 265 277 280 274 289 294 301 305 309 314 314 315 316 315 315 314 311 310 308 305 302 293 291 289 289 289 291
226 229 231 235 238 239 240 242 245 249 253 258 261 257 260 262 262 265 267 272 291 299 305 305 308 309 310 311 312 312 312 309 308 307 307 306 303 291 285 286 288 289 291
232 235 237 238 240 239 240 243 245 247 251 254 257 259 260 262 265 268 269 279 286 291 298 301 305 307 309 310 311 312 310 308 308 308 307 305 300 292 285 287 290 292 291
230 232 234 237 239 241 243 244 247 249 251 254 258 263 266 266 268 270 275 281 285 291 295 298 303 305 308 310 310 311 310 309 309 310 308 307 298 291 292 289 290 289 289
234 236 236 236 239 241 243 247 249 251 253 256 260 264 264 259 266 272 277 281 289 296 297 297 301 304 307 309 311 310 309 309 311 312 309 304 298 295 293 290 288 288 289
234 238 241 243 244 247 248 250 251 252 255 258 261 265 267 265 266 270 275 280 285 294 299 298 302 305 309 311 312 312 310 311 313 312 307 304 300 295 291 288 288 288 287
235 239 241 244 246 247 248 250 253 255 257 260 263 267 268 271 273 276 278 280 282 289 298 300 303 306 309 311 313 314 315 315 315 313 311 306 295 293 287 284 284 285 287
236 236 237 239 242 245 248 250 251 254 257 260 263 267 272 274 276 279 281 281 280 284 297 301 304 307 310 312 315 317 316 315 317 318 316 310 301 293 282 283 288 290 291
238 237 238 239 241 244 246 249 252 256 257 260 263 268 272 274 279 283 284 281 279 286 298 302 306 309 312 314 318 319 319 324 321 310 302 292 287 287 289 290 293 295 297